GOES 17

Last updated on Sun Apr 12 2026 00:02:27 GMT+0000 (Coordinated Universal Time)

1 43226U 18022A 26101.50292397 -.00000180 00000+0 00000+0 0 9995 2 43226 0.7654 86.6778 0000962 269.1166 295.4887 1.00271598 29750
UTC large
Height (km)
Speed (km/s)
/
Latitude / Longitude
Inclination (degrees)
Orbital Period (minutes)
Azimuth
Elevation
Range (km)
Doppler Factor

Next 0 passes for location: London (51.5072 / 0.1276)

Sorry there are no passes over London.
GOES 17